Meteo pe oră la Aars

Astăzi, 15 Iunie, Marţi

Timp Temperatura Precipitaţii Vânt Presiune Umiditate
00:00 +10°C° 0 mm 4 m/s 760 mmHg 89%
01:00 +8°C° 0 mm 4 m/s 760 mmHg 89%
02:00 +8°C° 0 mm 4 m/s 760 mmHg 89%
03:00 +8°C° 0 mm 4 m/s 760 mmHg 89%
04:00 +8°C° 0 mm 4 m/s 760 mmHg 89%
05:00 +10°C° 0 mm 5 m/s 760 mmHg 86%
06:00 +11°C° 0 mm 6 m/s 761 mmHg 82%
07:00 +13°C° 0 mm 6 m/s 761 mmHg 78%
08:00 +14°C° 0 mm 7 m/s 761 mmHg 73%
09:00 +14°C° 0 mm 7 m/s 761 mmHg 69%
10:00 +15°C° 0 mm 7 m/s 761 mmHg 64%
11:00 +15°C° 0 mm 7 m/s 762 mmHg 64%
12:00 +15°C° 0 mm 7 m/s 762 mmHg 63%
13:00 +15°C° 0 mm 8 m/s 762 mmHg 63%
14:00 +15°C° 0 mm 7 m/s 762 mmHg 64%
15:00 +15°C° 0 mm 7 m/s 762 mmHg 64%
16:00 +14°C° 0 mm 7 m/s 762 mmHg 65%
17:00 +14°C° 0 mm 6 m/s 762 mmHg 69%
18:00 +13°C° 0 mm 6 m/s 762 mmHg 72%
19:00 +12°C° 0 mm 5 m/s 761 mmHg 76%
20:00 +10°C° 0 mm 5 m/s 761 mmHg 80%
21:00 +10°C° 0 mm 4 m/s 761 mmHg 84%
22:00 +7°C° 0 mm 4 m/s 761 mmHg 89%
23:00 +7°C° 0 mm 4 m/s 761 mmHg 90%

Mâine, 16 Iunie, Miercuri

Timp Temperatura Precipitaţii Vânt Presiune Umiditate
00:00 +8°C° 0 mm 3 m/s 761 mmHg 92%
01:00 +7°C° 0 mm 3 m/s 761 mmHg 94%
02:00 +7°C° 0 mm 3 m/s 761 mmHg 94%
03:00 +7°C° 0 mm 3 m/s 761 mmHg 95%
04:00 +7°C° 0 mm 3 m/s 761 mmHg 95%
05:00 +9°C° 0 mm 3 m/s 761 mmHg 90%
06:00 +11°C° 0 mm 3 m/s 761 mmHg 85%
07:00 +12°C° 0 mm 4 m/s 761 mmHg 81%
08:00 +14°C° 0 mm 4 m/s 761 mmHg 75%
09:00 +15°C° 0 mm 4 m/s 761 mmHg 69%
10:00 +17°C° 0 mm 4 m/s 761 mmHg 64%
11:00 +18°C° 0 mm 4 m/s 761 mmHg 61%
12:00 +19°C° 0 mm 4 m/s 761 mmHg 59%
13:00 +20°C° 0 mm 3 m/s 760 mmHg 57%
14:00 +20°C° 0 mm 3 m/s 760 mmHg 58%
15:00 +21°C° 0 mm 3 m/s 760 mmHg 58%
16:00 +21°C° 0 mm 3 m/s 760 mmHg 58%
17:00 +20°C° 0 mm 3 m/s 760 mmHg 64%
18:00 +20°C° 0 mm 2 m/s 760 mmHg 69%
19:00 +19°C° 0 mm 2 m/s 759 mmHg 75%
20:00 +18°C° 0 mm 2 m/s 760 mmHg 80%
21:00 +16°C° 0 mm 2 m/s 760 mmHg 85%
22:00 +14°C° 0 mm 2 m/s 760 mmHg 89%
23:00 +13°C° 0 mm 2 m/s 760 mmHg 90%

Poimâine, 17 Iunie, Joi

Timp Temperatura Precipitaţii Vânt Presiune Umiditate
00:00 +13°C° 0 mm 2 m/s 760 mmHg 92%
01:00 +11°C° 0 mm 3 m/s 760 mmHg 93%
02:00 +11°C° 0 mm 3 m/s 760 mmHg 93%
03:00 +12°C° 0 mm 3 m/s 760 mmHg 92%
04:00 +12°C° 0 mm 3 m/s 759 mmHg 92%
05:00 +13°C° 0 mm 3 m/s 759 mmHg 89%
06:00 +15°C° 0 mm 4 m/s 759 mmHg 85%
07:00 +17°C° 0 mm 4 m/s 759 mmHg 81%
08:00 +18°C° 0 mm 4 m/s 759 mmHg 78%
09:00 +20°C° 0 mm 5 m/s 759 mmHg 74%
10:00 +21°C° 0 mm 5 m/s 759 mmHg 71%
11:00 +22°C° 0 mm 5 m/s 759 mmHg 71%
12:00 +23°C° 0 mm 5 m/s 758 mmHg 70%
13:00 +24°C° 0 mm 6 m/s 758 mmHg 70%
14:00 +24°C° 0 mm 6 m/s 758 mmHg 70%
15:00 +26°C° 0 mm 6 m/s 758 mmHg 71%
16:00 +26°C° 0 mm 6 m/s 758 mmHg 71%
17:00 +24°C° 0 mm 6 m/s 757 mmHg 74%
18:00 +23°C° 0 mm 6 m/s 757 mmHg 77%
19:00 +22°C° 0 mm 5 m/s 757 mmHg 80%
20:00 +21°C° 0.1 mm 5 m/s 756 mmHg 82%
21:00 +20°C° 0.1 mm 5 m/s 756 mmHg 84%
22:00 +19°C° 0.1 mm 5 m/s 756 mmHg 85%
23:00 +19°C° 0.1 mm 5 m/s 756 mmHg 85%

18 Iunie, Vineri

Timp Temperatura Precipitaţii Vânt Presiune Umiditate
00:00 +19°C° 0.1 mm 5 m/s 756 mmHg 86%
01:00 +17°C° 0.1 mm 5 m/s 755 mmHg 86%
02:00 +18°C° 0.2 mm 4 m/s 755 mmHg 89%
03:00 +18°C° 0.2 mm 4 m/s 755 mmHg 92%
04:00 +18°C° 0.2 mm 3 m/s 755 mmHg 95%
05:00 +19°C° 0.3 mm 3 m/s 755 mmHg 94%
06:00 +20°C° 0.3 mm 3 m/s 755 mmHg 93%
07:00 +21°C° 0.3 mm 3 m/s 755 mmHg 92%
08:00 +21°C° 0 mm 3 m/s 756 mmHg 91%
09:00 +21°C° 0 mm 3 m/s 756 mmHg 90%
10:00 +21°C° 0 mm 3 m/s 756 mmHg 89%
11:00 +22°C° 0 mm 3 m/s 757 mmHg 84%
12:00 +22°C° 0 mm 4 m/s 757 mmHg 78%
13:00 +23°C° 0 mm 4 m/s 757 mmHg 73%
14:00 +23°C° 0 mm 4 m/s 757 mmHg 72%
15:00 +22°C° 0 mm 4 m/s 757 mmHg 71%
16:00 +22°C° 0 mm 4 m/s 757 mmHg 70%
17:00 +21°C° 0 mm 4 m/s 758 mmHg 73%
18:00 +19°C° 0 mm 3 m/s 758 mmHg 75%
19:00 +18°C° 0 mm 3 m/s 758 mmHg 78%
20:00 +17°C° 0 mm 3 m/s 758 mmHg 79%
21:00 +15°C° 0 mm 2 m/s 758 mmHg 81%
22:00 +14°C° 0 mm 2 m/s 758 mmHg 82%
23:00 +14°C° 0 mm 2 m/s 758 mmHg 78%

19 Iunie, Sâmbătă

Timp Temperatura Precipitaţii Vânt Presiune Umiditate
00:00 +13°C° 0 mm 1 m/s 758 mmHg 75%
01:00 +13°C° 0 mm 1 m/s 758 mmHg 71%
02:00 +14°C° 0 mm 1 m/s 758 mmHg 69%
03:00 +14°C° 0 mm 0 m/s 758 mmHg 66%
04:00 +14°C° 0 mm 0 m/s 757 mmHg 64%
05:00 +16°C° 0 mm 1 m/s 757 mmHg 66%
06:00 +18°C° 0 mm 1 m/s 757 mmHg 68%
07:00 +18°C° 0 mm 2 m/s 757 mmHg 71%
08:00 +19°C° 0.9 mm 2 m/s 757 mmHg 77%
09:00 +19°C° 0.9 mm 2 m/s 757 mmHg 83%
10:00 +20°C° 0.9 mm 2 m/s 757 mmHg 89%
11:00 +20°C° 0.4 mm 2 m/s 757 mmHg 90%
12:00 +21°C° 0.4 mm 3 m/s 756 mmHg 92%
13:00 +21°C° 0.4 mm 3 m/s 756 mmHg 93%
14:00 +22°C° 0.3 mm 4 m/s 756 mmHg 89%
15:00 +22°C° 0.3 mm 5 m/s 756 mmHg 84%
16:00 +23°C° 0.3 mm 5 m/s 756 mmHg 80%
17:00 +22°C° 0.1 mm 5 m/s 756 mmHg 81%
18:00 +21°C° 0.1 mm 5 m/s 756 mmHg 82%
19:00 +20°C° 0.1 mm 5 m/s 756 mmHg 84%
20:00 +18°C° 0 mm 4 m/s 756 mmHg 87%
21:00 +17°C° 0 mm 3 m/s 757 mmHg 91%
22:00 +15°C° 0 mm 2 m/s 757 mmHg 94%
23:00 +15°C° 0 mm 2 m/s 757 mmHg 94%

20 Iunie, Duminică

Timp Temperatura Precipitaţii Vânt Presiune Umiditate
00:00 +14°C° 0 mm 2 m/s 757 mmHg 95%
01:00 +13°C° 0 mm 3 m/s 757 mmHg 96%
02:00 +14°C° 0 mm 2 m/s 757 mmHg 95%
03:00 +14°C° 0 mm 2 m/s 757 mmHg 95%
04:00 +14°C° 0 mm 1 m/s 756 mmHg 95%
05:00 +15°C° 0 mm 2 m/s 756 mmHg 93%
06:00 +17°C° 0 mm 2 m/s 756 mmHg 91%
07:00 +18°C° 0 mm 2 m/s 755 mmHg 88%
08:00 +18°C° 1 mm 3 m/s 755 mmHg 91%
09:00 +19°C° 1 mm 3 m/s 754 mmHg 94%
10:00 +19°C° 1 mm 4 m/s 754 mmHg 96%
11:00 +20°C° 0.4 mm 4 m/s 753 mmHg 94%
12:00 +21°C° 0.4 mm 5 m/s 753 mmHg 93%
13:00 +21°C° 0.4 mm 6 m/s 752 mmHg 91%
14:00 +21°C° 0.1 mm 6 m/s 753 mmHg 88%
15:00 +20°C° 0.1 mm 6 m/s 754 mmHg 85%
16:00 +19°C° 0.1 mm 6 m/s 755 mmHg 82%
17:00 +19°C° 0 mm 5 m/s 755 mmHg 83%
18:00 +18°C° 0 mm 4 m/s 755 mmHg 84%
19:00 +17°C° 0 mm 3 m/s 756 mmHg 85%
20:00 +16°C° 0 mm 2 m/s 756 mmHg 88%
21:00 +15°C° 0 mm 2 m/s 756 mmHg 91%
22:00 +14°C° 0 mm 1 m/s 756 mmHg 94%
23:00 +14°C° 0 mm 2 m/s 756 mmHg 95%
Arată mai mult

Formular de consimțământ

Meteoprog și furnizorii noștri de servicii pot stoca și accesa date personale, precum cookies, identificatori de dispozitiv sau alte tehnologii similare pe dispozitivul dumneavoastră și procesa astfel de date pentru a personaliza conținutul și reclamele, dar și pentru a oferi caracteristici de social media și pentru a analiza traficul.

  • Stocarea și/sau accesarea informațiilor pe dispozitivul dumneavoastră

    Cookies, identificatori de dispozitiv sau alte informații pot fi stocate sau accesate pe dispozitiv în scopurile indicate mai sus.

  • Reclame și conținut personalizat, evaluarea reclamelor și a conținutului, informații despre audiențe și dezvoltarea produselor

    Reclamele și conținutul pot fi personalizate pe baza unui profil. Pot fi adăugate date suplimentare pentru a personaliza mai bine reclamele și conținutul. Performanța reclamelor și conținutului poate fi măsurată. Pot fi obținute informații despre utilizatorii care au văzut reclamele și conținutul. Aceste date pot fi utilizate pentru a dezvolta sau îmbunătăți experiența utilizatorilor, sistemele și software-ul.

Dând clic pe ‘Sunt de acord’, permiteți utilizarea cookie-urilor menționate, a identificatorilor de dispozitiv, balizelor web sau altor tehnologii similare. Setările pot fi modificate din browser-ul dispozitivului dumneavoastră.

În anumite scopuri, interesele legitime pot prima asupra consimțământului. Puteți citi mai multe informații în acest sens în Politica privind Confidențialitatea Datelor și Cookie.